[[{"header":{"parameterUnit":"m.s-1","parameterCategory":1,"la1":30.2991,"la2":30.254,"lo1":-89.0895,"lo2":-89.0444,"dy":0.0017,"dx":0.0017,"nx":28,"ny":28,"refTime":"2026-02-18T03:00:00:Z","depth":0,"parameterNumber":2,"parameterNumberName":"U-component_of_WINDS"},"data":[0,0,0,0,0,0,0,0,0,0,0,0,0,0,0,0,0,0,0,0,0,0,0,0,0,0,0,0,0,0,0,0,0,0,0,0,0,0,0,0,0,0,0,0,0,0,0,0,0,0,0,0,0,0,0,0,0,0,0.6225,0.6225,0,0.622,0.622,0.622,0.6161,0.616,0.6158,0.6157,0.6155,0.6157,0.6158,0,0,0,0,0,0,0,0,0,0,0,0,0,0.6185,0.6186,0.6225,0.6225,0.6224,0.622,0.622,0.622,0.6161,0.616,0.6158,0.6156,0.6155,0.6157,0.6158,0,0,0,0,0,0,0,0,0,0,0,0,0,0.6193,0.6186,0.6225,0.6195,0.6192,0.622,0.622,0.622,0.6162,0.616,0.6157,0.6155,0.6154,0.6156,0.6158,0.6216,0,0,0.6165,0.6165,0,0,0,0,0,0,0,0,0.6193,0.6195,0.6199,0.6197,0.6194,0.6189,0.6205,0.6219,0.6162,0.6173,0.6157,0.6154,0.6169,0.6169,0.6173,0.6216,0.6216,0.6165,0.6166,0.6167,0.6167,0,0,0,0,0,0,0,0.6193,0.6195,0.6223,0.6199,0.6196,0.6182,0.6181,0.6208,0.6184,0.6172,0.6168,0.6168,0.6167,0.6172,0.6173,0.6216,0.6165,0.6167,0.6168,0.6169,0.6305,0.6307,0,0,0,0,0,0,0.6196,0.6195,0.6223,0.6223,0.6188,0.6185,0.6183,0.6193,0.6183,0.618,0.617,0.6165,0.6169,0.6171,0.6173,0.624,0.6167,0.6169,0.617,0.6302,0.6305,0.6308,0,0,0,0,0,0,0.6195,0.6199,0.6223,0.6208,0.621,0.6188,0.6199,0.6194,0.6199,0.6181,0.6177,0.6179,0.6168,0.617,0.6205,0.6239,0.617,0.6172,0.63,0.6303,0.6307,0.6374,0,0,0,0,0,0,0.6194,0.6199,0.622,0.6208,0.6211,0.6256,0.6201,0.6195,0.6202,0.6196,0.6189,0.6186,0.6166,0.6203,0.6207,0.624,0.6173,0.6297,0.6301,0.6305,0.6369,0.638,0.6389,0,0,0,0,0,0.6193,0.624,0.6222,0.6225,0.6237,0.6258,0.6259,0.6234,0.6205,0.6226,0.6215,0.6186,0.6234,0.6207,0.6212,0.6246,0.6294,0.63,0.6305,0.6364,0.6378,0.6389,0,0,0,0,0,0,0.6258,0.6238,0.6217,0.6262,0.6262,0.6248,0.6274,0.6249,0.6258,0.6252,0.6221,0.622,0.6261,0.6256,0.6227,0.6301,0.6259,0.6266,0.6302,0.6315,0.6325,0.6326,0.6175,0,0,0,0,0,0.6277,0.6295,0.6277,0.6318,0.6319,0.6296,0.6305,0.6285,0.6284,0.6284,0.6276,0.6277,0.6292,0.6303,0.6316,0.6367,0.6365,0.6393,0.6403,0.6411,0.6418,0.6445,0.6457,0.6326,0.6326,0.6326,0,0,0.6317,0.6309,0.6322,0.6331,0.6328,0.6348,0.6297,0.632,0.6335,0.6288,0.6321,0.6315,0.6314,0.6358,0.6376,0.6355,0.6453,0.6418,0.6425,0.6427,0.6452,0.6464,0.6476,0.6329,0.6329,0.6328,0,0,0.6401,0.6396,0.643,0.6428,0.6425,0.6409,0.6417,0.6407,0.64,0.6433,0.6398,0.6415,0.6442,0.6443,0.6447,0.6529,0.6503,0.6534,0.6587,0.6614,0.6625,0.6634,0.6664,0.6675,0.6541,0.6541,0.6541,0,0.6453,0.648,0.6451,0.6476,0.6481,0.6438,0.6472,0.6472,0.6474,0.6479,0.6454,0.6486,0.6483,0.6526,0.6546,0.6551,0.656,0.6536,0.6625,0.6634,0.6642,0.6671,0.6682,0.6545,0.6544,0.6544,0.6544,0,0.6544,0.6564,0.6591,0.6593,0.66,0.663,0.6606,0.6617,0.6597,0.6585,0.6618,0.6611,0.6623,0.6631,0.6612,0.6672,0.6659,0.663,0.6588,0.6659,0.6686,0.6696,0.655,0.6549,0.6548,0.6547,0,0,0.6671,0.6654,0.6665,0.6665,0.6657,0.6672,0.67,0.6709,0.672,0.6722,0.6746,0.6768,0.6741,0.6746,0.6726,0.675,0.6817,0.6718,0.6718,0.6738,0.6883,0.6906,0.6919,0.6798,0.68,0.6802,0.6884,0,0.6752,0.6798,0.6772,0.6822,0.684,0.6799,0.6823,0.6821,0.681,0.6824,0.6812,0.6829,0.6792,0.6794,0.6815,0.6804,0.6846,0.6797,0.6821,0.6822,0.6824,0.6933,0.6957,0.7035,0.6894,0.6896,0.6897,0,0.6855,0.686,0.6912,0.69,0.6906,0.6929,0.6935,0.6949,0.6946,0.6936,0.6941,0.6915,0.6942,0.6899,0.6936,0.6904,0.6912,0.6907,0.691,0.6912,0.6865,0.694,0.7059,0.7071,0.6913,0.6911,0.691,0,0.6943,0.6963,0.6996,0.6998,0.6985,0.7001,0.6997,0.6991,0.6999,0.7004,0.7009,0.7018,0.7024,0.7031,0.7009,0.6979,0.705,0.7005,0.7043,0.7044,0.7062,0.7061,0.7185,0.7064,0.7064,0.7064,0.7064,0,0.7038,0.7072,0.7036,0.7057,0.7093,0.7062,0.71,0.7091,0.7086,0.7105,0.707,0.7088,0.7057,0.7072,0.7055,0.7089,0.7091,0.7085,0.708,0.7089,0.709,0.7095,0.709,0.7067,0.7066,0.7066,0.7065,0,0.7144,0.7121,0.7155,0.714,0.7136,0.7164,0.7151,0.717,0.7155,0.718,0.7184,0.7161,0.7178,0.7156,0.717,0.7158,0.7205,0.7192,0.7206,0.7203,0.7244,0.7241,0.7376,0.7393,0.726,0.7261,0.7263,0,0.7207,0.7232,0.7218,0.7228,0.7225,0.7241,0.7248,0.7218,0.7227,0.7225,0.7245,0.7258,0.7267,0.7295,0.7281,0.7292,0.7279,0.7326,0.7281,0.7289,0.7282,0.7281,0.7284,0.7336,0.7338,0.7339,0.734,0,0.7322,0.7309,0.732,0.7327,0.7335,0.734,0.7341,0.7351,0.732,0.7332,0.7348,0.7355,0.7369,0.7383,0.739,0.7385,0.7358,0.7354,0.7364,0.7374,0.7382,0.7379,0.7233,0.7351,0.735,0.7349,0.7349,0.7348,0.7409,0.7429,0.7423,0.7436,0.7433,0.7436,0.7453,0.7439,0.7452,0.7461,0.7442,0.7463,0.7459,0.7465,0.7464,0.748,0.746,0.7474,0.7478,0.7482,0.7489,0.7378,0.7481,0.7481,0.748,0.748,0.748,0,0.7523,0.7516,0.7528,0.7531,0.7542,0.7513,0.7513,0.7524,0.7542,0.754,0.755,0.7568,0.7581,0.7567,0.7577,0.7593,0.7581,0.7597,0.7597,0.7596,0.7506,0.7497,0.7607,0.7607,0.7607,0.7607,0.7607,0.7607,0.7584,0.7616,0.7602,0.7634,0.7626,0.7646,0.7648,0.765,0.7649,0.767,0.7681,0.7671,0.7664,0.7674,0.7685,0.768,0.7686,0.7707,0.7699,0.7615,0.7603,0.7591,0.7582,0.7709,0.7709,0.7788,0.7789,0.779]},{"header":{"parameterUnit":"m.s-1","parameterCategory":1,"la1":30.2991,"la2":30.254,"lo1":-89.0895,"lo2":-89.0444,"dy":0.0017,"dx":0.0017,"nx":28,"ny":28,"refTime":"2026-02-18T03:00:00:Z","depth":0,"parameterNumber":3,"parameterNumberName":"V-component_of_WINDS"},"data":[0,0,0,0,0,0,0,0,0,0,0,0,0,0,0,0,0,0,0,0,0,0,0,0,0,0,0,0,0,0,0,0,0,0,0,0,0,0,0,0,0,0,0,0,0,0,0,0,0,0,0,0,0,0,0,0,0,0,4.5387,4.5387,0,4.5466,4.5466,4.5467,4.5441,4.5439,4.5437,4.5436,4.5512,4.5515,4.5519,0,0,0,0,0,0,0,0,0,0,0,0,0,4.5206,4.521,4.5386,4.5387,4.5388,4.5465,4.5466,4.5467,4.5441,4.5439,4.5437,4.5435,4.551,4.5515,4.5519,0,0,0,0,0,0,0,0,0,0,0,0,0,4.5285,4.5211,4.5386,4.5385,4.5385,4.5465,4.5466,4.5468,4.5442,4.5439,4.5436,4.5434,4.5509,4.5514,4.552,4.5604,0,0,4.5536,4.5538,0,0,0,0,0,0,0,0,4.528,4.5291,4.5384,4.5385,4.5386,4.5441,4.5431,4.5513,4.5442,4.542,4.5436,4.5433,4.549,4.5497,4.5517,4.5608,4.5611,4.5537,4.554,4.5542,4.5544,0,0,0,0,0,0,0,4.5275,4.5288,4.5418,4.5385,4.5386,4.5378,4.5386,4.5446,4.5468,4.5422,4.542,4.543,4.549,4.5512,4.5518,4.5612,4.5536,4.5541,4.5545,4.5547,4.5774,4.5777,0,0,0,0,0,0,4.527,4.5284,4.5415,4.542,4.5326,4.5383,4.5393,4.5426,4.5467,4.5471,4.5432,4.5429,4.5504,4.5512,4.5521,4.5622,4.5542,4.5547,4.555,4.5771,4.5775,4.5778,0,0,0,0,0,0,4.5266,4.5282,4.5412,4.5351,4.5367,4.5389,4.5426,4.5429,4.5451,4.5475,4.5478,4.5451,4.5502,4.5513,4.5584,4.5624,4.555,4.5555,4.5768,4.5772,4.5776,4.5825,0,0,0,0,0,0,4.5261,4.5281,4.5315,4.5352,4.5371,4.5475,4.5429,4.5432,4.5461,4.5457,4.5494,4.5498,4.5501,4.5576,4.5589,4.563,4.5559,4.5764,4.577,4.5775,4.582,4.583,4.5839,0,0,0,0,0,4.5255,4.5324,4.5317,4.5333,4.5414,4.5478,4.5488,4.5492,4.5464,4.5497,4.5513,4.5496,4.5618,4.5583,4.5598,4.5641,4.5762,4.5768,4.5774,4.5815,4.5828,4.5839,0,0,0,0,0,0,4.5289,4.5329,4.5321,4.5406,4.5439,4.5473,4.5515,4.5505,4.5546,4.554,4.5542,4.555,4.5622,4.5638,4.56,4.5724,4.5685,4.5695,4.5711,4.5724,4.5733,4.5728,4.5563,0,0,0,0,0,4.5307,4.5358,4.5389,4.546,4.5477,4.5494,4.5521,4.5522,4.5555,4.5569,4.5589,4.5621,4.5666,4.5696,4.5738,4.5822,4.5828,4.5859,4.5868,4.5876,4.5884,4.5928,4.5942,4.5798,4.5798,4.5798,0,0,4.5344,4.5372,4.5403,4.5468,4.5494,4.5544,4.5506,4.556,4.5597,4.5576,4.5645,4.5661,4.5696,4.5773,4.5807,4.5788,4.5925,4.5884,4.589,4.5894,4.5936,4.595,4.5962,4.5803,4.5802,4.5801,0,0,4.5436,4.5463,4.5525,4.5552,4.5592,4.5602,4.5616,4.5653,4.5663,4.5732,4.5717,4.5759,4.5837,4.5862,4.5885,4.5986,4.5972,4.6,4.6051,4.6093,4.6104,4.6114,4.615,4.6162,4.6008,4.6008,4.6008,0,4.5476,4.5554,4.5558,4.5614,4.5642,4.5627,4.5689,4.5713,4.5764,4.5783,4.5761,4.5858,4.5881,4.5963,4.5987,4.6007,4.6022,4.5996,4.6103,4.6113,4.6122,4.6156,4.6169,4.6011,4.6011,4.601,4.601,0,4.56,4.5654,4.5699,4.575,4.5783,4.5842,4.5853,4.5885,4.5882,4.5893,4.5962,4.5989,4.6036,4.6055,4.6052,4.6136,4.6123,4.6102,4.6063,4.6139,4.617,4.6183,4.6015,4.6014,4.6013,4.6013,0,0,4.5718,4.5771,4.5787,4.581,4.5852,4.5892,4.5949,4.5997,4.6024,4.6059,4.6105,4.6171,4.6152,4.6178,4.6177,4.6215,4.6291,4.6189,4.6189,4.6206,4.6384,4.64,4.6415,4.6282,4.6284,4.6286,4.6381,0,4.5814,4.5917,4.5921,4.6013,4.6062,4.6047,4.6096,4.6126,4.6138,4.6179,4.6191,4.6237,4.6209,4.6224,4.626,4.6274,4.6327,4.6268,4.6324,4.6326,4.6316,4.6431,4.6449,4.6537,4.6394,4.6396,4.6397,0,4.594,4.5981,4.6078,4.6113,4.6133,4.6177,4.6221,4.6261,4.6293,4.6299,4.6328,4.6322,4.6377,4.6336,4.6411,4.6371,4.6394,4.6404,4.6407,4.6412,4.6366,4.644,4.6565,4.6578,4.6417,4.6415,4.6414,0,4.6016,4.6094,4.6163,4.6182,4.6224,4.6256,4.6274,4.6304,4.6332,4.6369,4.6387,4.643,4.6453,4.6485,4.6489,4.6459,4.6564,4.6524,4.6569,4.6569,4.6593,4.6591,4.6724,4.6608,4.6607,4.6607,4.6607,0,4.6122,4.6182,4.6197,4.6239,4.6305,4.6309,4.6373,4.6389,4.6416,4.6459,4.6447,4.6488,4.6491,4.6531,4.6534,4.6596,4.6606,4.6611,4.6611,4.6613,4.6612,4.6628,4.6621,4.6611,4.661,4.6609,4.6609,0,4.6218,4.6231,4.6304,4.6338,4.6347,4.6395,4.6422,4.6461,4.6471,4.6526,4.6539,4.6554,4.6601,4.6609,4.6663,4.6665,4.6739,4.6733,4.6729,4.6728,4.6773,4.6769,4.692,4.694,4.6811,4.6812,4.6813,0,4.6286,4.6332,4.637,4.64,4.642,4.6467,4.6495,4.6499,4.6529,4.6569,4.6603,4.6649,4.6687,4.6762,4.6777,4.6818,4.6813,4.6863,4.6819,4.6818,4.6813,4.681,4.6814,4.6871,4.6873,4.6874,4.6875,0,4.6404,4.6408,4.6451,4.6496,4.6531,4.6566,4.6599,4.6623,4.6631,4.6664,4.6714,4.6743,4.6799,4.6844,4.6885,4.6901,4.6889,4.6888,4.6901,4.6903,4.6898,4.6901,4.6752,4.6885,4.6884,4.6883,4.6883,4.6882,4.6487,4.6527,4.6561,4.6609,4.6634,4.6665,4.6703,4.6719,4.676,4.6808,4.6806,4.686,4.6889,4.6943,4.6962,4.7002,4.6985,4.7004,4.7008,4.7013,4.7017,4.6892,4.7009,4.7009,4.7008,4.7008,4.7008,0,4.6605,4.6625,4.6669,4.6717,4.6754,4.674,4.6776,4.6807,4.6855,4.6884,4.6921,4.6976,4.702,4.7038,4.708,4.7108,4.7104,4.7119,4.7117,4.7121,4.703,4.7015,4.7122,4.7122,4.7122,4.7122,4.7122,4.7122,4.667,4.6737,4.6744,4.6822,4.6842,4.6895,4.6917,4.6944,4.6967,4.703,4.7067,4.7079,4.7103,4.7147,4.7185,4.7189,4.7205,4.7223,4.7224,4.7139,4.7127,4.7116,4.7102,4.7226,4.7226,4.7312,4.7312,4.7313]}]]